Location: Marsån
(66.4167°N, 22.2833°E)
Time: 07:44:25
(UTC+00:00)

Cosmos 1833 Rocket - Pass Details

Date: 24 February 2024
Orbit: 833 x 838 km, 71.0° (Epoch: 20 April)

Event Time Altitude Azimuth Distance (km) Brightness Sun altitude
Rises 16:33:40 0° 188° (S) 3,385 6.0 -7.6°
Reaches altitude 10° 16:36:17 10° 180° (S) 2,453 5.2 -7.9°
Maximum altitude 16:41:19 35° 117° (ESE) 1,333 3.3 -8.4°
Drops below altitude 10° 16:46:22 10° 53° (NE) 2,462 4.6 -8.9°
Enters shadow 16:48:06 - 47° (NE) 3,077 5.2 -9.1°
